IW3HBX-13 Weather Reports


Display with metric or nautical units.
time (UTC)temp
F
wind
direction
speed
MPH
gust
MPH
rain 1hr
in
rain 24hr
in
rain mn
in
humidity
%
barometer
mb
20260831060610 77 301 0.0 0.0 0.00 0.00 0.00 71 1014.9
20260831055406 76 301 0.0 0.0 0.00 0.00 0.00 73 1014.8
20260831054806 74 301 0.0 0.0 0.00 0.00 0.00 76 1014.8
20260831054206 74 301 0.0 0.0 0.00 0.00 0.00 80 1014.8
20260831053608 74 301 0.0 0.0 0.00 0.00 0.00 78 1014.7
20260831053006 73 301 0.0 0.0 0.00 0.00 0.00 82 1014.6
20260831052408 72 301 0.0 0.0 0.00 0.00 0.00 85 1014.5
20260831051806 72 301 0.0 0.0 0.00 0.00 0.00 86 1014.6
20260831051209 71 301 0.0 0.0 0.00 0.00 0.00 87 1014.6
20260831050608 70 301 0.0 0.0 0.00 0.00 0.00 88 1014.5
20260831045406 69 301 0.0 0.0 0.00 0.00 0.00 92 1014.5
20260831044809 69 301 0.0 0.0 0.00 0.00 0.00 92 1014.3
20260831044206 69 301 0.0 0.0 0.00 0.00 0.00 92 1014.5
20260831043608 69 301 0.0 0.0 0.00 0.00 0.00 92 1014.4
20260831043008 69 301 0.0 0.0 0.00 0.00 0.00 92 1014.4
20260831042406 69 295 0.0 0.0 0.00 0.00 0.00 92 1014.3
20260831041806 69 295 0.0 0.0 0.00 0.00 0.00 92 1014.3
20260831041207 69 295 0.0 0.0 0.00 0.00 0.00 92 1014.3
20260831040608 69 295 0.0 0.0 0.00 0.00 0.00 92 1014.3
20260831035406 69 295 0.0 0.0 0.00 0.00 0.00 91 1014.4
20260831034807 69 295 0.0 0.0 0.00 0.00 0.00 92 1014.5
20260831034209 69 295 0.0 0.0 0.00 0.00 0.00 92 1014.5
20260831033609 69 295 0.0 0.0 0.00 0.00 0.00 92 1014.6
20260831033006 69 295 0.0 0.0 0.00 0.00 0.00 92 1014.6
20260831032409 69 295 0.0 0.0 0.00 0.00 0.00 92 1014.6
20260831031807 69 295 0.0 0.0 0.00 0.00 0.00 92 1014.7
20260831031207 69 295 0.0 0.0 0.00 0.00 0.00 92 1014.7
20260831030606 69 295 0.0 0.0 0.00 0.00 0.00 94 1014.8
20260831025410 69 295 0.0 0.0 0.00 0.00 0.00 94 1014.8
20260831024806 69 295 0.0 0.0 0.00 0.00 0.00 94 1014.7
20260831024209 69 295 0.0 0.0 0.00 0.00 0.00 94 1014.8
20260831023607 69 295 0.0 0.0 0.00 0.00 0.00 94 1014.7
20260831023007 70 295 0.0 0.0 0.00 0.00 0.00 92 1014.7
20260831022406 70 295 0.0 0.0 0.00 0.00 0.00 92 1014.6
20260831021807 70 295 1.0 2.0 0.00 0.00 0.00 92 1014.6
20260831021209 70 295 0.0 0.0 0.00 0.00 0.00 92 1014.7
20260831020606 70 295 0.0 0.0 0.00 0.00 0.00 92 1014.7
20260831015408 70 295 0.0 0.0 0.00 0.00 0.00 92 1014.7
20260831014806 70 295 0.0 0.0 0.00 0.00 0.00 92 1014.7
20260831014206 70 295 0.0 0.0 0.00 0.00 0.00 94 1014.7
20260831013641 70 295 0.0 0.0 0.00 0.00 0.00 95 1014.8
20260831013609 70 295 0.0 0.0 0.00 0.00 0.00 95 1014.8
20260831013010 70 295 0.0 0.0 0.00 0.00 0.00 94 1014.9
20260831012407 70 295 0.0 0.0 0.00 0.00 0.00 95 1014.9
20260831011806 70 295 0.0 0.0 0.00 0.00 0.00 95 1014.8
20260831011206 70 295 0.0 0.0 0.00 0.00 0.00 95 1014.8
20260831010741 71 295 0.0 0.0 0.00 0.00 0.00 95 1014.7
20260831010606 71 295 0.0 0.0 0.00 0.00 0.00 95 1014.7
20260831005408 71 295 0.0 0.0 0.00 0.00 0.00 95 1014.9
20260831004807 71 295 0.0 0.0 0.00 0.00 0.00 95 1014.8
20260831004207 71 295 0.0 0.0 0.00 0.00 0.00 95 1014.8
20260831003610 71 295 0.0 0.0 0.00 0.00 0.00 94 1014.8
20260831003007 71 295 0.0 0.0 0.00 0.00 0.00 94 1014.9
20260831002407 71 295 0.0 0.0 0.00 0.00 0.00 94 1014.8
20260831001807 71 295 0.0 0.0 0.00 0.00 0.00 94 1014.8
20260831001207 71 295 0.0 0.0 0.00 0.00 0.00 94 1014.9
20260831000607 71 295 0.0 0.0 0.00 0.00 0.00 94 1014.9
20260830235409 71 295 0.0 0.0 0.00 0.00 0.00 94 1014.9
20260830234807 71 295 0.0 0.0 0.00 0.00 0.00 94 1014.9
20260830234207 71 295 0.0 0.0 0.00 0.00 0.00 92 1014.9
20260830233607 72 295 0.0 0.0 0.00 0.00 0.00 92 1014.9
20260830233007 73 295 0.0 0.0 0.00 0.00 0.00 91 1014.9
20260830232407 73 295 0.0 0.0 0.00 0.00 0.00 91 1014.9
20260830231807 73 295 0.0 0.0 0.00 0.00 0.00 90 1015.0
20260830231207 73 295 0.0 0.0 0.00 0.00 0.00 88 1015.0
20260830230607 73 295 0.0 0.0 0.00 0.00 0.00 90 1015.0
20260830225407 73 295 0.0 0.0 0.00 0.00 0.00 90 1015.0
20260830224807 73 295 0.0 0.0 0.00 0.00 0.00 90 1015.0
20260830224207 73 295 0.0 0.0 0.00 0.00 0.00 90 1015.1
20260830223607 74 295 0.0 0.0 0.00 0.00 0.00 86 1015.1
20260830223008 74 295 0.0 0.0 0.00 0.00 0.00 86 1015.2
20260830222407 73 295 0.0 0.0 0.00 0.00 0.00 90 1015.1
20260830221807 73 295 0.0 0.0 0.00 0.00 0.00 90 1015.1
20260830221208 73 295 0.0 0.0 0.00 0.00 0.00 90 1015.1
20260830220607 74 295 0.0 0.0 0.00 0.00 0.00 88 1015.1
20260830215409 74 295 0.0 0.0 0.00 0.00 0.00 88 1015.1
20260830214807 75 295 0.0 0.0 0.00 0.00 0.00 87 1015.1
20260830214207 75 295 0.0 0.0 0.00 0.00 0.00 86 1015.1
20260830213607 75 295 0.0 0.0 0.00 0.00 0.00 86 1015.1
20260830213007 75 295 0.0 1.0 0.00 0.00 0.00 86 1015.0
20260830212407 75 295 1.0 2.0 0.00 0.00 0.00 85 1015.0
20260830211807 75 295 2.0 2.0 0.00 0.00 0.00 86 1015.0
20260830211207 76 167 0.0 0.0 0.00 0.00 0.00 83 1014.9
20260830210609 77 167 0.0 0.0 0.00 0.00 0.00 82 1014.9
20260830205407 77 167 0.0 0.0 0.00 0.00 0.00 81 1014.7
20260830204807 77 167 0.0 0.0 0.00 0.00 0.00 80 1014.8
20260830204207 77 167 0.0 0.0 0.00 0.00 0.00 80 1014.8
20260830203608 77 167 0.0 0.0 0.00 0.00 0.00 80 1014.7
20260830203007 76 189 0.0 0.0 0.00 0.00 0.00 80 1014.7
20260830202408 77 189 0.0 0.0 0.00 0.00 0.00 81 1014.8
20260830201807 77 189 0.0 0.0 0.00 0.00 0.00 78 1014.8
20260830201207 77 189 0.0 0.0 0.00 0.00 0.00 78 1014.8
20260830200607 77 189 0.0 0.0 0.00 0.00 0.00 78 1014.8
20260830195409 77 189 0.0 0.0 0.00 0.00 0.00 78 1014.7
20260830194806 77 189 0.0 0.0 0.00 0.00 0.00 80 1014.8
20260830194206 77 189 0.0 0.0 0.00 0.00 0.00 78 1014.7
20260830193609 78 189 0.0 0.0 0.00 0.00 0.00 77 1014.6
20260830193007 78 189 0.0 0.0 0.00 0.00 0.00 76 1014.6
20260830192409 78 189 0.0 0.0 0.00 0.00 0.00 76 1014.6
20260830191807 78 189 0.0 0.0 0.00 0.00 0.00 75 1014.6
20260830191207 78 189 0.0 0.0 0.00 0.00 0.00 78 1014.5
20260830190607 79 189 0.0 0.0 0.00 0.00 0.00 71 1014.5
20260830185408 80 158 0.0 0.0 0.00 0.00 0.00 70 1014.5
20260830184810 80 158 0.0 0.0 0.00 0.00 0.00 72 1014.4
20260830184209 81 156 0.0 0.0 0.00 0.00 0.00 67 1014.3
20260830183607 81 156 0.0 0.0 0.00 0.00 0.00 69 1014.4
20260830183007 81 156 0.0 0.0 0.00 0.00 0.00 69 1014.2
20260830182409 81 156 0.0 0.0 0.00 0.00 0.00 67 1014.2
20260830181810 82 156 0.0 0.0 0.00 0.00 0.00 71 1014.1
20260830181207 82 156 0.0 0.0 0.00 0.00 0.00 67 1014.0
20260830180607 82 156 0.0 0.0 0.00 0.00 0.00 65 1014.0
20260830175409 82 156 0.0 0.0 0.00 0.00 0.00 64 1013.9
20260830174809 83 156 0.0 0.0 0.00 0.00 0.00 65 1013.9
20260830174207 84 155 0.0 0.0 0.00 0.00 0.00 63 1013.8
20260830173607 84 135 0.0 0.0 0.00 0.00 0.00 63 1013.8
20260830173007 85 135 0.0 1.0 0.00 0.00 0.00 59 1013.8
20260830172407 85 135 0.0 1.0 0.00 0.00 0.00 59 1013.8
20260830171807 86 133 0.0 0.0 0.00 0.00 0.00 57 1013.7
20260830171207 86 133 0.0 0.0 0.00 0.00 0.00 56 1013.9
20260830170608 87 133 1.0 2.0 0.00 0.00 0.00 56 1013.9
20260830165407 88 136 0.0 0.0 0.00 0.00 0.00 52 1013.9
20260830164808 86 160 0.0 1.0 0.00 0.00 0.00 53 1014.0
20260830164208 86 133 2.0 3.0 0.00 0.00 0.00 53 1014.0
20260830163607 87 123 1.0 2.0 0.00 0.00 0.00 52 1014.1
20260830163009 86 124 2.0 3.0 0.00 0.00 0.00 52 1014.0
20260830162407 86 146 3.0 4.0 0.00 0.00 0.00 52 1013.9
20260830161809 87 153 2.0 4.0 0.00 0.00 0.00 52 1014.1
20260830161207 86 155 2.0 3.0 0.00 0.00 0.00 52 1014.0
20260830160607 87 117 2.0 3.0 0.00 0.00 0.00 49 1014.2
20260830155407 88 146 1.0 4.0 0.00 0.00 0.00 51 1014.1
20260830154807 87 146 1.0 2.0 0.00 0.00 0.00 49 1014.1
20260830154210 89 138 1.0 3.0 0.00 0.00 0.00 48 1014.2
20260830153607 90 216 2.0 5.0 0.00 0.00 0.00 45 1014.2
20260830153009 88 141 1.0 5.0 0.00 0.00 0.00 48 1014.1
20260830152410 88 167 2.0 3.0 0.00 0.00 0.00 45 1014.2
20260830151810 89 184 2.0 4.0 0.00 0.00 0.00 46 1014.1
20260830151207 89 142 3.0 4.0 0.00 0.00 0.00 46 1014.1
20260830150607 89 140 2.0 3.0 0.00 0.00 0.00 45 1014.1
20260830145408 89 190 2.0 4.0 0.00 0.00 0.00 45 1014.1
20260830144807 89 141 3.0 6.0 0.00 0.00 0.00 46 1014.1
20260830144209 90 182 2.0 2.0 0.00 0.00 0.00 44 1014.2
20260830143608 90 166 1.0 2.0 0.00 0.00 0.00 41 1014.3
20260830143009 90 114 2.0 3.0 0.00 0.00 0.00 42 1014.3
20260830142407 89 184 1.0 3.0 0.00 0.00 0.00 43 1014.3
20260830141807 88 151 2.0 3.0 0.00 0.00 0.00 43 1014.4
20260830141207 86 70 2.0 5.0 0.00 0.00 0.00 45 1014.3
20260830140610 89 104 1.0 3.0 0.00 0.00 0.00 42 1014.4
20260830135410 90 104 2.0 5.0 0.00 0.00 0.00 42 1014.5
20260830134807 91 139 3.0 5.0 0.00 0.00 0.00 42 1014.5
20260830134208 90 230 0.0 2.0 0.00 0.00 0.00 41 1014.6
20260830133607 89 220 1.0 3.0 0.00 0.00 0.00 41 1014.6
20260830133007 89 115 1.0 2.0 0.00 0.00 0.00 40 1014.7
20260830132407 89 94 1.0 2.0 0.00 0.00 0.00 41 1014.8
20260830131807 87 37 2.0 3.0 0.00 0.00 0.00 41 1014.8
20260830131208 87 353 2.0 4.0 0.00 0.00 0.00 42 1014.8
20260830130607 88 60 1.0 2.0 0.00 0.00 0.00 41 1014.9
20260830125407 86 60 4.0 6.0 0.00 0.00 0.00 40 1015.1
20260830124807 86 18 4.0 6.0 0.00 0.00 0.00 42 1015.1
20260830124210 87 64 0.0 1.0 0.00 0.00 0.00 42 1015.1
20260830123610 87 80 2.0 3.0 0.00 0.00 0.00 43 1015.1
20260830123007 86 43 3.0 5.0 0.00 0.00 0.00 44 1015.1
20260830122407 86 66 1.0 5.0 0.00 0.00 0.00 44 1015.1
20260830121809 86 84 1.0 5.0 0.00 0.00 0.00 42 1015.2
20260830121207 86 123 0.0 2.0 0.00 0.00 0.00 43 1015.2
20260830120607 87 90 2.0 5.0 0.00 0.00 0.00 44 1015.2
20260830114807 87 78 2.0 3.0 0.00 0.00 0.00 44 1015.2
20260830114207 86 322 2.0 2.0 0.00 0.00 0.00 44 1015.2
20260830113608 87 63 0.0 1.0 0.00 0.00 0.00 43 1015.0
20260830113007 86 90 1.0 4.0 0.00 0.00 0.00 45 1015.2
20260830111807 85 359 1.0 2.0 0.00 0.00 0.00 46 1015.2
20260830111208 86 60 2.0 4.0 0.00 0.00 0.00 49 1015.3
20260830110607 86 64 3.0 6.0 0.00 0.00 0.00 49 1015.2
20260830104809 85 125 1.0 3.0 0.00 0.00 0.00 48 1015.3
20260830104207 85 58 2.0 4.0 0.00 0.00 0.00 50 1015.5
20260830103608 85 75 3.0 5.0 0.00 0.00 0.00 49 1015.6
20260830103007 84 58 0.0 3.0 0.00 0.00 0.00 50 1015.5
20260830101810 85 59 3.0 4.0 0.00 0.00 0.00 50 1015.7
20260830101207 85 61 2.0 4.0 0.00 0.00 0.00 51 1015.8
20260830100610 84 67 1.0 2.0 0.00 0.00 0.00 51 1015.9
20260830094806 85 302 1.0 2.0 0.00 0.00 0.00 52 1015.9
20260830094207 84 70 2.0 4.0 0.00 0.00 0.00 51 1016.0
20260830093606 84 69 2.0 4.0 0.00 0.00 0.00 50 1016.0
20260830093331 84 21 2.0 4.0 0.00 0.00 0.00 52 1016.1
20260830093008 84 21 2.0 4.0 0.00 0.00 0.00 52 1016.1
20260830091806 82 66 1.0 3.0 0.00 0.00 0.00 54 1016.2
20260830091208 82 61 4.0 6.0 0.00 0.00 0.00 54 1016.2
20260830090607 82 57 0.0 2.0 0.00 0.00 0.00 53 1016.2
20260830084806 81 74 1.0 3.0 0.00 0.00 0.00 57 1016.3
20260830084206 81 67 4.0 5.0 0.00 0.00 0.00 57 1016.1
20260830083607 81 42 3.0 5.0 0.00 0.00 0.00 58 1016.2
20260830083008 82 351 1.0 2.0 0.00 0.00 0.00 56 1016.2
20260830081206 79 48 1.0 2.0 0.00 0.00 0.00 59 1016.1
20260830080610 80 49 4.0 6.0 0.00 0.00 0.00 60 1016.2
20260830074806 79 32 2.0 4.0 0.00 0.00 0.00 63 1016.1
20260830074207 78 358 1.0 3.0 0.00 0.00 0.00 64 1016.1
20260830073607 79 349 3.0 7.0 0.00 0.00 0.00 63 1016.1
20260830073009 78 61 1.0 2.0 0.00 0.00 0.00 65 1016.1
20260830071807 78 31 1.0 2.0 0.00 0.00 0.00 67 1016.0
20260830071206 78 58 1.0 3.0 0.00 0.00 0.00 70 1015.9
20260830070606 78 50 2.0 3.0 0.00 0.00 0.00 67 1015.9
20260830064807 77 74 2.0 2.0 0.00 0.00 0.00 71 1015.8
20260830064207 75 42 1.0 2.0 0.00 0.00 0.00 73 1015.8
20260830063606 75 65 3.0 4.0 0.00 0.00 0.00 76 1015.8
20260830063006 76 28 1.0 2.0 0.00 0.00 0.00 73 1015.8
20260830062407 75 67 1.0 4.0 0.00 0.00 0.00 76 1015.9
20260830061807 75 49 1.0 2.0 0.00 0.00 0.00 76 1015.8
20260830061206 75 78 1.0 2.0 0.00 0.00 0.00 77 1015.9